FW5213 Weather Reports


Display with metric or nautical units.
time (UTC)temp
F
wind
direction
speed
MPH
gust
MPH
rain 1hr
in
rain 24hr
in
rain mn
in
humidity
%
barometer
mb
20260507024508 70 261 6.0 8.0 0.00 0.00 0.00 86 1014.0
20260507023007 71 239 4.0 6.0 0.00 0.00 0.00 84 1014.1
20260507021507 70 156 0.0 2.0 0.00 0.00 0.00 83 1013.9
20260507020008 70 171 1.0 3.0 0.00 0.00 0.00 84 1013.9
20260507014510 70 195 0.0 1.0 0.00 0.00 0.00 84 1014.0
20260507013007 70 195 1.0 5.0 0.00 0.00 0.00 85 1013.9
20260507011508 70 226 4.0 8.0 0.00 0.00 0.00 87 1014.1
20260507010012 70 217 5.0 7.0 0.00 0.00 0.00 87 1013.9
20260507004505 69 244 4.0 9.0 0.00 0.00 0.00 88 1013.9
20260507003013 70 237 6.0 11.0 0.00 0.00 0.00 88 1013.8
20260507001506 70 204 4.0 9.0 0.00 0.00 0.00 87 1013.6
20260507000005 70 250 7.0 13.0 0.00 0.00 0.00 87 1013.4
20260506234505 70 212 10.0 16.0 0.00 0.00 0.00 87 1013.2
20260506233005 70 215 11.0 16.0 0.00 0.00 0.00 87 1013.0
20260506231506 70 198 11.0 16.0 0.00 0.00 0.00 87 1012.9
20260506230010 70 201 12.0 16.0 0.00 0.00 0.00 87 1012.8
20260506224505 70 233 14.0 19.0 0.00 0.00 0.00 87 1012.8
20260506223005 70 219 14.0 20.0 0.00 0.00 0.00 87 1012.7
20260506221505 70 199 14.0 19.0 0.00 0.00 0.00 87 1012.5
20260506220002 70 247 14.0 22.0 0.00 0.00 0.00 87 1012.3
20260506214503 70 226 17.0 23.0 0.00 0.00 0.00 87 1012.2
20260506213002 71 234 18.0 24.0 0.00 0.00 0.00 87 1012.2
20260506211503 71 234 18.0 27.0 0.00 0.00 0.00 87 1012.3
20260506210001 71 234 18.0 25.0 0.00 0.00 0.00 87 1012.0
20260506204504 70 235 19.0 25.0 0.00 0.00 0.00 87 1012.0
20260506203001 71 256 18.0 25.0 0.00 0.00 0.00 86 1012.0
20260506201602 71 254 18.0 23.0 0.00 0.00 0.00 85 1012.0
20260506200100 71 237 19.0 23.0 0.00 0.00 0.00 84 1012.1
20260506194559 72 247 17.0 21.0 0.00 0.00 0.00 84 1012.2
20260506193058 72 246 15.0 19.0 0.00 0.00 0.00 83 1012.4
20260506191559 72 228 14.0 19.0 0.00 0.00 0.00 83 1012.3
20260506190059 73 199 13.0 18.0 0.00 0.00 0.00 83 1012.6
20260506184557 73 235 13.0 16.0 0.00 0.00 0.00 81 1012.5
20260506183058 73 246 10.0 14.0 0.00 0.00 0.00 80 1012.6
20260506181554 73 240 10.0 14.0 0.00 0.00 0.00 81 1012.8
20260506180053 73 237 13.0 16.0 0.00 0.00 0.00 80 1012.9
20260506174559 73 261 11.0 14.0 0.00 0.00 0.00 80 1013.2
20260506173118 73 251 10.0 13.0 0.00 0.00 0.00 80 1013.3
20260506171551 73 251 11.0 14.0 0.00 0.00 0.00 78 1013.4
20260506170050 74 258 10.0 13.0 0.00 0.00 0.00 78 1013.9
20260506164550 73 255 9.0 12.0 0.00 0.00 0.00 80 1013.9
20260506163053 73 243 10.0 14.0 0.00 0.00 0.00 80 1014.2
20260506161550 74 262 8.0 12.0 0.00 0.00 0.00 77 1014.4
20260506160048 73 240 6.0 12.0 0.00 0.00 0.00 80 1014.8
20260506154548 73 238 7.0 12.0 0.00 0.00 0.00 79 1014.7
20260506153047 73 238 9.0 13.0 0.00 0.00 0.00 79 1015.0
20260506151548 72 237 6.0 11.0 0.00 0.00 0.00 80 1015.0
20260506150053 72 277 2.0 5.0 0.00 0.00 0.00 80 1015.1
20260506144559 72 349 3.0 7.0 0.00 0.00 0.00 80 1015.3
20260506143050 72 346 4.0 7.0 0.00 0.00 0.00 80 1015.1
20260506141541 71 337 4.0 7.0 0.00 0.00 0.00 80 1015.1
20260506140057 71 339 3.0 5.0 0.00 0.00 0.00 80 1015.0
20260506134541 72 314 2.0 6.0 0.00 0.00 0.00 79 1015.0
20260506133040 73 356 2.0 5.0 0.00 0.00 0.00 77 1014.7
20260506131543 72 72 2.0 4.0 0.00 0.00 0.00 79 1014.8
20260506130041 71 81 1.0 3.0 0.00 0.00 0.00 78 1014.6
20260506124533 70 157 0.0 2.0 0.00 0.00 0.00 83 1014.6
20260506123037 69 43 0.0 2.0 0.00 0.00 0.00 85 1014.5
20260506121528 67 103 0.0 3.0 0.00 0.00 0.00 86 1014.6
20260506120032 66 145 1.0 2.0 0.00 0.00 0.00 86 1014.7
20260506114526 66 78 0.0 1.0 0.00 0.00 0.00 87 1014.5
20260506113032 65 78 0.0 2.0 0.00 0.00 0.00 87 1014.5
20260506111524 65 45 0.0 1.0 0.00 0.00 0.00 87 1014.4
20260506110032 65 123 0.0 2.0 0.00 0.00 0.00 87 1014.2
20260506104525 65 123 1.0 2.0 0.00 0.00 0.00 87 1013.9
20260506103019 67 158 0.0 2.0 0.00 0.00 0.00 88 1013.8
20260506101514 67 208 2.0 5.0 0.00 0.00 0.00 89 1013.8
20260506100019 68 237 4.0 9.0 0.00 0.00 0.00 89 1013.6
20260506094515 68 240 6.0 10.0 0.00 0.00 0.00 89 1013.6
20260506093015 68 244 4.0 7.0 0.00 0.00 0.00 88 1013.6
20260506091513 68 237 4.0 7.0 0.00 0.00 0.00 89 1013.5
20260506090013 68 191 4.0 8.0 0.00 0.00 0.00 88 1013.2
20260506084511 68 237 4.0 6.0 0.00 0.00 0.00 88 1013.2
20260506083011 68 254 6.0 10.0 0.00 0.00 0.00 88 1013.3
20260506081514 68 264 9.0 11.0 0.00 0.00 0.00 88 1013.2
20260506073010 69 254 4.0 6.0 0.00 0.00 0.00 85 1013.1
20260506071507 69 210 1.0 4.0 0.00 0.00 0.00 84 1013.1
20260506061502 69 242 5.0 9.0 0.00 0.00 0.00 88 1013.4
20260506044556 69 248 6.0 10.0 0.00 0.00 0.00 87 1013.7
20260506043100 69 242 4.0 10.0 0.00 0.00 0.00 87 1013.6
20260506041554 68 238 5.0 9.0 0.00 0.00 0.00 87 1013.6
20260506034613 69 262 8.0 12.0 0.00 0.00 0.00 87 1013.5
20260506033055 69 243 6.0 9.0 0.00 0.00 0.00 87 1013.5
20260506031556 69 233 5.0 10.0 0.00 0.00 0.00 86 1013.6